www.pogodaiklimat.ru

Погода и климат >> Архив погоды >> Россия >> Иркутская область >> Тулун


ПОГОДА в Тулуне

  • Прогноз погоды в Тулуне
  • Монитор погоды в Тулуне
  • Климат города

АРХИВ ПОГОДЫ в Тулуне

Время (UTC), дата Ветер
(напр.,м/с)
 
Видим.   Явления Облачность Т
(С)
Тd
(С)
f
(%)
Тe
(С)
Тes
(С)
Комфортность P
(гПа)
Po
(гПа)
Тmin
(С)
Tmax
(С)
R
(мм)
R24
(мм)
S
(см)
03 8.08 В 2 20 км 3/0
[Ac trans]
+18.0 +11.3 65 +19 +27 1012.8 953.2
06 8.08 В 4 20 км 8/8 600 м
[Cu med, cong]
+20.8 +11.9 57 +23 +25 комфорт 1011.7 952.7
09 8.08 СВ 4 20 км 4/4 600 м
[Cu hum]
+21.9 +12.5 55 +24 +27 комфорт 1010.9 952.3
12 8.08 СВ 2 20 км 1/1 600 м
[Cu hum]
+20.3 +13.1 63 +23 +23 комфорт 1011.5 952.5 +22.1
15 8.08 СВ 4 н/о ясно +14.6 +12.3 86 +13 +13 1013.0 952.8
18 8.08 СВ 2 н/о ясно +12.5 +10.6 88 +12 +12 1012.6 951.9
21 8.08 СВ 1 н/о 4/0
[Ac cast]
+10.9 +9.6 92 +11 +11 1012.5 951.5
00 9.08 СВ 2 20 км 8/0
[Ac trans Ci sp]
+14.1 +10.7 80 +14 +15 1011.6 951.3 +10.3
03 9.08 СВ 2 20 км 9/3 600 м
[Sc Ac trans]
+17.7 +12.9 73 +18 +22 1010.1 950.7
06 9.08 С 1 20 км 9/8 600 м
[Cb calv Ac trans]
+20.0 +14.3 70 +23 +25 комфорт 1009.5 950.6
09 9.08 С 1 20 км {ливн. осадки} 9/8 600 м
[Cb calv Ac trans]
+20.1 +15.2 73 +24 +25 комфорт 1009.5 950.6
12 9.08 Ю 1 20 км слабый ливневой дождь 10/8 600 м
[Cb calv Ac As]
+17.4 +15.9 91 +18 +18 1010.9 951.4 +20.3 0.3
15 9.08 штиль 0 н/о слабый ливневой дождь 10/10 600 м
[Cb calv]
+15.0 +14.4 96 +15 +15 1012.6 952.6
18 9.08 штиль 0 н/о {ливн. осадки} 8/0
[Ac trans]
+14.2 +13.7 97 +14 +14 1012.5 952.3
21 9.08 ЮВ 1 н/о 10/0
[Ac As]
+13.2 +12.8 97 +13 +13 1013.2 952.7
00 10.08 ЮЗ 1 20 км 8/0
[Ac trans Ci sp]
+14.0 +12.7 92 +14 +16 1013.6 953.2 +12.9 1
03 10.08 З 1 20 км 6/1 600 м
[Cu hum Ac trans Ci sp]
+19.5 +13.5 68 +22 +30 комфорт 1012.6 953.3
06 10.08 Ю 3 20 км 6/4 600 м
[Cu med, cong Ci sp]
+22.5 +12.1 52 +25 +31 комфорт 1011.5 952.9
09 10.08 ЮВ 3 20 км 3/3 600 м
[Cu med, cong Ci sp]
+23.5 +12.1 49 +25 +29 комфорт 1010.0 951.7
12 10.08 ЮВ 1 20 км ясно +22.5 +11.9 51 +25 +25 комфорт 1009.5 951.0 +23.7
15 10.08 Ю 2 н/о ясно +17.5 +13.5 77 +18 +18 1010.4 950.9
18 10.08 ЮВ 2 н/о ясно +15.2 +12.7 85 +15 +15 1010.4 950.4
21 10.08 ЮВ 3 н/о ясно +14.0 +12.1 88 +13 +13 1009.8 949.6
00 11.08 ЮВ 3 20 км ясно +15.2 +12.8 86 +14 +16 1009.1 949.2 +13.4
03 11.08 ЮВ 5 20 км ясно +21.3 +13.5 61 +24 +29 комфорт 1006.5 948.0
06 11.08 ЮВ 6
{10}
20 км ясно +24.5 +13.9 52 +27 +32 жарко 1004.1 946.3
09 11.08 ЮВ 6 20 км ясно +26.0 +13.6 46 +28 +30 жарко 1001.7 944.4
12 11.08 ЮВ 3 20 км ясно +23.3 +14.6 58 +27 +27 душно 1001.4 943.6 +26.1
15 11.08 ЮВ 2 н/о ясно +18.9 +14.7 77 +21 +21 комфорт 1001.6 942.9
18 11.08 ЮВ 4 н/о ясно +18.2 +13.4 74 +18 +18 1000.9 942.1
21 11.08 ЮВ 3 н/о ясно +16.3 +11.4 73 +16 +16 1000.9 941.7
00 12.08 ЮВ 4 20 км ясно +16.7 +12.0 74 +16 +18 1000.8 941.7 +15.1
03 12.08 ЮВ 5 20 км 1/0
[Ci fib]
+21.5 +14.2 63 +24 +29 комфорт 999.2 941.2
06 12.08 ЮВ 5 20 км 1/0
[Ci sp]
+26.6 +14.4 47 +29 +35 жарко 997.3 940.3
09 12.08 В 6
{10}
20 км 1/0
[Ci fib]
+28.5 +12.2 36 +30 +32 жарко 996.3 939.7
12 12.08 ЮВ 3
{10}
20 км 1/0
[Ci fib]
+25.4 +12.5 45 +27 +27 жарко 996.8 939.6 +28.6
15 12.08 ЮВ 5 н/о 1/0
[Ci fib]
+21.3 +11.8 55 +23 +23 комфорт 997.5 939.5
18 12.08 ЮВ 2 н/о 1/0
[Ci fib]
+19.0 +11.9 63 +20 +20 997.6 939.2
21 12.08 С 1 н/о 1/0
[Ci fib]
+13.1 +11.3 89 +13 +13 1001.9 942.0
00 13.08 СЗ 3 20 км 3/0
[Ac trans]
+18.2 +14.3 78 +19 +20 1002.0 943.2 +12.9
03 13.08 С 3 20 км 9/6 600 м
[Cb calv Ac trans]
+18.6 +14.5 77 +20 +21 1004.0 945.1
06 13.08 СЗ 3 20 км 9/6 600 м
[Cb calv Ac trans]
+19.4 +14.1 71 +21 +23 комфорт 1005.1 946.3
09 13.08 СЗ 3 20 км 10/8 600 м
[Cb calv Ac As]
+18.4 +13.2 72 +19 +19 1006.4 947.4
12 13.08 СЗ 3 20 км слабый ливневой дождь 10/8 600 м
[Cb calv Ac As]
+14.3 +13.4 94 +13 +13 1008.8 948.8 +19.8 2
15 13.08 СЗ 1 н/о слабый ливневой дождь 10/10 600 м
[Cb calv]
+13.5 +12.9 96 +14 +14 1010.3 950.0
18 13.08 СЗ 1 н/о слабый ливневой дождь 10/10 600 м
[Cb calv]
+13.2 +12.6 96 +13 +13 1011.0 950.6
21 13.08 СЗ 2 н/о слабый ливневой дождь 10/10 600 м
[Cb calv]
+13.1 +12.5 96 +12 +12 1010.8 950.4
00 14.08 С 2 20 км слабый ливневой дождь 10/10 600 м
[Cb calv]
+13.3 +12.7 96 +12 +12 1010.4 950.1 +13.0 12
03 14.08 С 2 4000 м слабый ливневой дождь 10/10 600 м
[Cb calv]
+13.8 +13.2 96 +13 +13 1010.4 950.2
06 14.08 С 2 4000 м слабый ливневой дождь 10/10 600 м
[Cb calv]
+13.9 +13.3 96 +13 +13 1009.1 949.0
09 14.08 С 4
{10}
20 км слабый ливневой дождь 10/10 600 м
[Cb calv]
+12.6 +11.8 95 +11 +11 1009.6 949.1
12 14.08 СЗ 2 20 км слабый ливневой дождь 10/10 600 м
[Cb calv]
+11.0 +10.3 95 +10 +10 1010.8 950.0 +14.1 5
15 14.08 З 2 н/о слабый ливневой дождь 10/10 600 м
[Cb calv]
+11.3 +10.8 97 +10 +10 1011.2 950.4
18 14.08 З 3 н/о слабый ливневой дождь 10/10 600 м
[Cb calv]
+10.9 +10.2 95 +9 +9 1011.1 950.2
21 14.08 З 3 н/о {ливн. осадки} 10/4 600 м
[Cb calv Ac As]
+10.6 +9.1 90 +8 +8 1011.5 950.5
00 15.08 ЮЗ 5
{10}
20 км {ливн. осадки} 10/8 600 м
[Cb calv Ac As]
+10.7 +8.2 85 +8 +8 1012.1 951.0 +10.6 7

 

Местоположение метеостанции Тулун (Иркутская область, Россия): широта 54.60 долгота 100.60 высота над уровнем моря 522 м.

В архиве по умолчанию представлена погода в Тулуне за последнюю неделю. Архивные данные за месяц целиком и за предыдущие месяцы, начиная с января 2011 года, Вы можете получить, выбрав интересующий диапазон дат из раскрывающегося списка и нажав кнопку "Ввод!".


*Определитесь, кто Вы:
робот инопланетянин человек

Внимание! Время в таблицах - всемирное. Для получения местного времени необходимо прибавить поправку, которая в Тулуне равна 8 ч.

Смотрите также архив погоды в соседних городах и на ближайших метеорологических станциях:

Погода в Тангуе (Иркутская область, Россия) (90 км)
Погода в Нижнеудинске (Иркутская область, Россия) (106 км)
Погода в Зиме (Иркутская область, Россия) (118 км)
Погода в Хадаме (Иркутская область, Россия) (137 км)
Погода в Калтуке (Иркутская область, Россия) (139 км)
Погода в Сараме (Иркутская область, Россия) (144 км)
Погода в Балаганске (Иркутская область, Россия) (169 км)
Погода в Заларях (Иркутская область, Россия) (170 км)
Погода в Нерое (Иркутская область, Россия) (179 км)
Погода в Алыгджере (Иркутская область, Россия) (189 км)

Пояснения к столбцам:

Ветер - указаны скорость ветра в м/с - средняя за 10 мин, порывы в срок и между сроками (в фигурных скобках) и направление, откуда дует ветер: С - северный, СВ - северо-восточный, В - восточный, ЮВ - юго-восточный, Ю - южный, ЮЗ - юго-западный, З - западный, СЗ - северо-западный.
Видимость - горизонтальная дальность видимости в метрах или километрах. При видимости от 1 до 10 км при отсутствии осадков обычно наблюдается дымка, при ухудшении видимости до 1 км и менее - туман. В сухую погоду видимость может ухудшаться дымом, пылью или мглою.
Явления - указаны атмосферные явления, наблюдавшиеся в срок или в последний час перед сроком; фигурными скобками обозначены явления, наблюдавшиеся между сроками (за 1-3 часа до срока); квадратными скобками обозначены град или гололедные отложения с указанием их диаметра в мм.
Облачность - указаны через наклонную черту общая и нижняя облачность в баллах и высота нижней границы облаков в метрах; квадратными скобками обозначены формы облаков: Ci - перистые, Cs - перисто-слоистые, Cc - перисто-кучевые, Ac - высококучевые, As - высокослоистые, Sc - слоисто-кучевые, Ns - слоисто-дождевые, Cu - кучевые, Cb - кучево-дождевые. Подробнее классификацию облаков см. в Атласе облаков (PDF).
T - Температура воздуха - температура, измеренная на высоте 2 м над землей.
Td - Температура точки росы - температура, при понижении до которой содержащийся в воздухе водяной пар достигнет насыщения.
f - Относительная влажность воздуха - влажноcть воздуха, измеренная на высоте 2 м над землей.
Te - Эффективная температура - температура, которую ощущает одетый по сезону человек в тени. Характеристика душности погоды. При расчете учитывается влияние влажности воздуха и скорости ветра на теплоощущения человека.
Tes - Эффективная температура на солнце - температура, которую ощущает человек, с поправкой на солнечный нагрев. Характеристика знойности погоды. Зависит от высоты солнца над горизонтом, облачности и скорости ветра. Ночью, в пасмурную погоду, а также при ветре 12 м/с и более поправка равна нулю.
P - Атмосферное давление - приведенное к уровню моря атмосферное давление.
Po - Атмосферное давление - измеренное на уровне метеостанции атмосферное давление.
Tmin - Минимальная температура - минимум температуры воздуха на высоте 2 м над землей.
Tmax - Максимальная температура - максимум температуры воздуха на высоте 2 м над землей.
R - Количество осадков - Количество выпавших осадков за период времени, мм. При наведении курсора мыши на число - период времени, за который выпало указанное количество осадков.
R24 - Количество осадков - Количество выпавших осадков за 24 часа, мм.
S - Снежный покров - Высота снежного покрова, см. При наведении курсора мыши на число - состояние снежного покрова и степень покрытия местности в баллах.